Flag for United Kingdom Weather past 2 weeks in Milton Keynes, England, United Kingdom

Now
54 °F

Light rain. Passing clouds.


Feels Like: 49 °F
Forecast: 42 / 54 °F
Wind: 18 mph from Southwest

Location: Luton Airport

Current Time: Dec 19, 2014 at 12:53:32 AM

Latest Report: Dec 19, 2014 at 12:20 AM


Visibility: N/A

Pressure: 29.77 "Hg

Humidity: 88%

Dew point: 50 °F

Location of Milton KeynesLocation

Historic Weather in Milton Keynes — Graph

°F

Milton Keynes temperature yesterday

Maximum temperature yesterday: 55 °F (at 11:50 AM)
Minimum temperature yesterday: 52 °F (at 12:20 AM)
Average temperature yesterday: 54 °F

Past Weeks' High & Low Weather Summary

 TemperatureHumidityPressure
High55 °F (Dec 18, 11:50 AM)100% (Dec 4, 1:20 AM)30.36 "Hg (Dec 4, 1:20 AM)
Low30 °F (Dec 6, 6:20 AM)66% (Dec 10, 9:50 AM)29.21 "Hg (Dec 12, 4:50 AM)
Average41 °F89%29.91 "Hg
* Reported Dec 3 11:20 PM — Dec 18 11:50 PM, Milton Keynes, Weather by CustomWeather, © 2014

Note: Actual official high and low records may vary slightly from our data, if they occured in-between our weather recording intervals... More about our weather records

Advertising

Milton Keynes weather history for previous 24 hours

 ConditionsComfort  
Time TempWeatherWind HumidityBarometerVisibility
11:50 PM
Dec 18
54 °FOvercast.17 mph88%29.77 "HgN/A
11:20 PM54 °FOvercast.18 mph88%29.77 "HgN/A
10:50 PM54 °FOvercast.22 mph88%29.77 "HgN/A
10:20 PM54 °FPassing clouds.20 mph94%29.80 "Hg5 mi
9:50 PM54 °FDrizzle. Overcast.21 mph88%29.80 "HgN/A
9:20 PM54 °FPassing clouds.21 mph88%29.80 "HgN/A
8:50 PM54 °FDrizzle. Overcast.22 mph88%29.80 "HgN/A
8:20 PM54 °FPassing clouds.24 mph88%29.80 "HgN/A
7:50 PM54 °FOvercast.22 mph88%29.80 "HgN/A
7:20 PM54 °FLow clouds.21 mph88%29.80 "Hg4 mi
6:50 PM54 °FDrizzle. Overcast.21 mph88%29.80 "HgN/A
6:20 PM54 °FOvercast.24 mph88%29.80 "HgN/A
5:50 PM54 °FOvercast.26 mph88%29.77 "HgN/A
5:20 PM54 °FDrizzle. Overcast.28 mph88%29.77 "HgN/A
4:50 PM54 °FPassing clouds.26 mph94%29.77 "HgN/A
4:20 PM54 °FOvercast.24 mph94%29.77 "HgN/A
3:50 PM54 °FOvercast.25 mph94%29.77 "HgN/A
3:20 PM54 °FOvercast.28 mph94%29.77 "HgN/A
2:50 PM55 °FOvercast.28 mph88%29.74 "HgN/A
2:20 PM54 °FOvercast.26 mph88%29.74 "HgN/A
1:50 PM54 °FPartly sunny.25 mph88%29.77 "HgN/A
1:20 PM54 °FOvercast.24 mph88%29.77 "HgN/A
12:50 PM55 °FOvercast.23 mph82%29.77 "HgN/A
12:20 PM54 °FPartly sunny.21 mph88%29.77 "HgN/A
11:50 AM55 °FPartly sunny.21 mph82%29.77 "HgN/A
11:20 AM54 °FPartly sunny.25 mph88%29.80 "HgN/A
10:20 AM54 °FOvercast.25 mph94%29.80 "HgN/A
9:50 AM54 °FOvercast.24 mph94%29.80 "HgN/A
9:20 AM54 °FLow clouds.23 mph94%29.80 "HgN/A
8:50 AM54 °FPartly sunny.23 mph94%29.77 "HgN/A
8:20 AM54 °FOvercast.22 mph88%29.77 "HgN/A
7:50 AM54 °FPassing clouds.20 mph88%29.77 "HgN/A
7:20 AM54 °FPassing clouds.20 mph88%29.77 "HgN/A
6:50 AM54 °FOvercast.22 mph88%29.77 "HgN/A
6:20 AM54 °FOvercast.17 mph88%29.77 "HgN/A
5:50 AM54 °FPassing clouds.20 mph88%29.77 "HgN/A
5:20 AM54 °FLow clouds.18 mph94%29.77 "HgN/A
4:50 AM54 °FLow clouds.18 mph94%29.77 "HgN/A
4:20 AM54 °FLow clouds.17 mph94%29.77 "HgN/A
3:20 AM54 °FLow clouds.16 mph94%29.77 "HgN/A
2:50 AM52 °FLow clouds.18 mph100%29.77 "Hg4 mi
2:20 AM52 °FPassing clouds.17 mph100%29.77 "Hg4 mi
1:50 AM54 °FPassing clouds.21 mph94%29.77 "HgN/A
1:20 AM52 °FPassing clouds.21 mph100%29.74 "HgN/A
12:50 AM52 °FPassing clouds.20 mph100%29.74 "HgN/A
12:20 AM52 °FPassing clouds.18 mph94%29.74 "HgN/A
Weather by CustomWeather, © 2014

See weather overviewHow to use our weather pages